Regional Weather Roundup
Issued by NWS

Home | Current Version | Previous Version | Text Only | Print | Product List | Glossary Off
Versions: 1 2 3 4 5 6 7 8 9 10 11 12 13 14 15 16 17 18 19 20 21 22 23 24 25 26 27 28 29 30 31 32 33 34 35 36 37 38 39 40 41 42 43 44 45 46 47 48 49 50

000
ASUS43 KIND 020909
RWRIN

WEATHER ROUNDUP FOR INDIANA
NATIONAL WEATHER SERVICE INDIANAPOLIS IN
500 AM EDT TUE JUN 02 2015

NOTE: "FAIR" INDICATES FEW OR NO CLOUDS BELOW 12,000 FEET WITH NO
SIGNIFICANT WEATHER AND/OR OBSTRUCTIONS TO VISIBILITY.

* - STATION DOES NOT REPORT WEATHER SUCH AS PRECIPITATION OR FOG.

+ - STATION NOT QUALITY CONTROLLED BY THE NATIONAL WEATHER SERVICE.
    USE DATA WITH CAUTION...ESPECIALLY DEWPOINT AND RELATIVE
    HUMIDITY OBSERVATIONS.

INZ001>003-010>013-019-020-021000-
NORTHWEST INDIANA

CITY           SKY/WX    TMP DP  RH WIND       PRES   REMARKS
GARY /AIRPORT/ CLEAR     43  42  99 CALM      30.19R
KNOX *+        CLEAR     45  45 100 CALM      30.18S
LA PORTE +     CLEAR     46  46 100 CALM      30.19S
MICHIGAN CITY+ CLEAR     41  41 100 CALM      30.19R FOG
MONTICELLO +   CLEAR     48  48 100 CALM      30.16S
RENSSELAER +   CLEAR     46  45  93 N5        30.18R
VALPARAISO     CLEAR     43  42  97 E5        30.19R

$$

LMZ046-743>745-021000-
SOUTHERN LAKE MICHIGAN

STATION/POSITION TIME  TEMP    WIND        PRES    WAVE
                       AIR SEA DIR/SP/G            HT
                 (UTC) (F)     (DEG/KT/KT) (MB)    (FT)
BURNS HARBOR     0900          200/  3/  4 1022.4S
MICHIGAN CITY    0900   47     120/  2/  3   N/A
5NW MICH CITY    0900   50 56   CALM  /  2   N/A     2

$$

INZ004-005-014>016-021>024-021000-
NORTH CENTRAL INDIANA

CITY           SKY/WX    TMP DP  RH WIND       PRES   REMARKS
GOSHEN         CLEAR     45  43  93 CALM      30.19R FOG
LOGANSPORT +   FOG       46  43  87 N5        30.17R VSB 1
PERU/GRISSOM   CLEAR     46  44  92 NE5       30.15R
ROCHESTER +    CLEAR     46  46 100 CALM      30.18S FOG
SOUTH BEND     CLEAR     49  45  86 CALM      30.20R
WARSAW +         N/A     45  43  93 CALM      30.19R FOG

$$

INZ006>009-017-018-025>027-021000-
NORTHEAST INDIANA

CITY           SKY/WX    TMP DP  RH WIND       PRES   REMARKS
ANGOLA *+      CLEAR     41  28  60 CALM      30.18R
AUBURN +         N/A     43  41  93 CALM      30.18S
FORT WAYNE     PTCLDY    47  45  93 N3        30.16F
HUNTINGTON +   CLEAR     46  45  97 CALM      30.16S

$$

INZ028-029-035-036-043>045-051>053-021000-
WEST CENTRAL INDIANA

CITY           SKY/WX    TMP DP  RH WIND       PRES   REMARKS
CRAWFORDSVL +  CLEAR     47  42  83 N3        30.14S
GREENCASTLE +  CLEAR     48  43  81 E3        30.13F
LAFAYETTE      CLEAR     48  46  93 CALM      30.15S
TERRE HAUTE    MOCLDY    51  49  92 VRB3      30.13S

$$

INZ030>032-037>040-046>048-054>057-064-065-021000-
CENTRAL INDIANA

CITY           SKY/WX    TMP DP  RH WIND       PRES   REMARKS
CP ATTERBURY + CLOUDY    52  48  87 NE6       30.13S
FISHERS *+     CLEAR     45  45 100 CALM      30.14S
FRANKFORT +    CLEAR     48  48 100 NE5       30.16S
GREENWOOD *+   CLEAR     48  45  87 CALM      30.13F
INDIANAPOLIS   PTCLDY    50  45  83 NE7       30.12S
-EAGLE CREEK   CLEAR     49  46  90 NE3       30.13S
KOKOMO *+      CLEAR     46  45  93 NE5       30.15S
MARION +       CLEAR     47  46  97 NE3       30.15F
MT COMFORT *+  CLEAR     46 N/A N/A CALM      30.13F
SHELBYVILLE    CLEAR     51  47  86 NE5       30.12F
ZIONSVILLE +   CLEAR     50  45  84 CALM      30.15S

$$

INZ033-034-041-042-049-050-058-059-021000-
EAST CENTRAL INDIANA

CITY           SKY/WX    TMP DP  RH WIND       PRES   REMARKS
MUNCIE         CLEAR     48  46  93 NE7       30.13F

$$

INZ060-061-067>069-081>083-085>088-021000-
SOUTHWEST INDIANA

CITY           SKY/WX    TMP DP  RH WIND       PRES   REMARKS
EVANSVILLE     CLOUDY    59  55  87 NE3       30.10S
HUNTINGBURG *+ CLOUDY    55  54  94 NE5       30.10S
WASHINGTON +   CLOUDY    56  51  81 E5        30.11S

$$

INZ062-063-066-070>080-084-089>092-021000-
SOUTH CENTRAL AND SOUTHEAST INDIANA

CITY           SKY/WX    TMP DP  RH WIND       PRES   REMARKS
BLOOMINGTON    CLOUDY    54  49  83 E7        30.11F
MADISON *+     CLOUDY    54  48  82 NE7       30.12S
NORTH VERNON + CLOUDY    54  54 100 NE7       30.11F
SEYMOUR +      CLOUDY    55  50  82 NE5       30.11F

$$



USA.gov is the U.S. government's official web portal to all federal, state and local government web resources and services.